Bonilla Island, British Columbia

10:08 PM PDT on April 23, 2017 (GMT -0700)
Bonilla Island

Weather History for CWWL - November, 2012

Change the Weather History Date:

Tuesday, November 6, 2012

  Actual Average Record
Temperature  
Mean Temperature 54 °F -  
Max Temperature 61 °F 46 °F - ()
Min Temperature 48 °F 39 °F - ()
Degree Days  
Heating Degree Days 10    
Growing Degree Days 4 (Base 50)    
Moisture  
Dew Point 55 °F    
Average Humidity 88    
Maximum Humidity 93    
Minimum Humidity 67    
Precipitation  
Precipitation 0.16 in 0.33 in - ()
Sea Level Pressure  
Sea Level Pressure 29.88 in    
Wind  
Wind Speed 12 mph ()    
Max Wind Speed 24 mph    
Max Gust Speed 32 mph    
T = Trace of Precipitation, MM = Missing Value Source: Averaged Metar Reports

Daily Weather History Graph

Daily Weather History Graph

Search for Another Location

Airport or City:

Trip Planner

Search our weather history database for the weather conditions in past years. The results will help you decide how hot, cold, wet, or windy it might be!

Date:

Astronomy

Nov. 06, 2012 Rise Set
Actual Time 7:52 AM PST 4:59 PM PST
Civil Twilight 7:14 AM PST 5:36 PM PST
Nautical Twilight 6:32 AM PST 6:18 PM PST
Astronomical Twilight 5:52 AM PST 6:59 PM PST
Moon 11:57 PM PST (11/6) 1:39 PM PST (11/6)
Length of Visible Light 10h 22m
Length of Day
9h 06m
Waning Gibbous, 52% of the Moon is Illuminated
Nov 6
Waning Gibbous
Nov 6
Last Quarter
Nov 13
New
Nov 20
First Quarter
Nov 28
Full

Hourly Weather History & Observations

Time (PST) Temp. Dew Point Humidity Pressure Visibility Wind Dir Wind Speed Gust Speed Precip Events Conditions
12:00 AM 59.0 °F 56.3 °F 91% 30.10 in - SSE 19.6 mph 27.6 mph N/A   Unknown
1:00 AM 58.5 °F 55.9 °F 91% 30.08 in - SSE 15.0 mph 24.2 mph N/A   Unknown
2:00 AM 57.6 °F 55.4 °F 92% 30.06 in - SSE 13.8 mph 26.5 mph 0.08 in   Unknown
3:00 AM 59.0 °F 57.0 °F 93% 30.04 in - SSE 12.7 mph 21.9 mph N/A   Unknown
4:00 AM 59 °F 57 °F 90% 30.01 in - SSE 13.8 mph - -  
4:00 AM 58.8 °F 56.8 °F 93% 30.01 in - SSE 13.8 mph 23.0 mph 0.06 in   Unknown
5:00 AM 59.0 °F 56.8 °F 93% 29.98 in - SSE 15.0 mph 28.8 mph N/A   Unknown
6:00 AM 58.6 °F 56.5 °F 93% 29.95 in - SE 10.4 mph 21.9 mph 0.02 in   Unknown
7:00 AM 59.4 °F 57.4 °F 93% 29.93 in - SSE 13.8 mph 25.3 mph 0.02 in   Unknown
8:00 AM 59.9 °F 57.9 °F 93% 29.91 in - SSE 12.7 mph 24.2 mph 0.02 in   Unknown
9:00 AM 60.4 °F 57.9 °F 91% 29.88 in - SSE 13.8 mph 27.6 mph 0.06 in   Unknown
10:00 AM 59 °F 56 °F 88% 29.87 in - SE 11.5 mph - -  
10:00 AM 58.8 °F 56.3 °F 91% 29.87 in - SE 11.5 mph 21.9 mph 0.03 in   Unknown
12:00 PM 59.0 °F 55.2 °F 87% 29.82 in - SE 10.4 mph 23.0 mph 0.02 in   Unknown
1:00 PM 59.4 °F 55.6 °F 87% 29.81 in - SE 9.2 mph 18.4 mph 0.03 in   Unknown
2:00 PM 61.2 °F 56.7 °F 85% 29.77 in - South 24.2 mph 32.2 mph 0.10 in   Unknown
3:00 PM 59.5 °F 55.8 °F 87% 29.77 in - SSE 18.4 mph - 0.06 in   Unknown
4:00 PM 60 °F 58 °F 90% 29.76 in - SSE 13.8 mph - -  
4:00 PM 60.4 °F 57.7 °F 91% 29.76 in - SSE 13.8 mph 20.7 mph 0.02 in   Unknown
5:00 PM 57.9 °F 55.8 °F 92% 29.76 in - SE 8.1 mph - 0.06 in   Unknown
6:00 PM 59.9 °F 55.9 °F 87% 29.76 in - NNE 16.1 mph 21.9 mph 0.02 in   Unknown
7:00 PM 58.5 °F 53.8 °F 84% 29.79 in - North 6.9 mph - N/A   Unknown
8:00 PM 57.6 °F 54.7 °F 90% 29.81 in - ENE 3.5 mph - N/A   Unknown
9:00 PM 59.2 °F 52.2 °F 78% 29.82 in - WNW 11.5 mph 18.4 mph 0.05 in   Unknown
10:00 PM 57 °F 49 °F 67% 29.85 in - West 13.8 mph - -  
10:00 PM 57.4 °F 49.1 °F 74% 29.85 in - West 13.8 mph - N/A   Unknown
11:00 PM 50.7 °F 42.4 °F 73% 29.87 in - West 12.7 mph - N/A   Unknown